ARGENTIA (MARS), Canada

5:02 PM NST on January 16, 2017 (GMT -0330)
Argentia

Weather History for CWAR - November, 2012

Change the Weather History Date:

Sunday, November 18, 2012

  Actual Average Record
Temperature  
Mean Temperature 34 °F -  
Max Temperature 37 °F - - ()
Min Temperature 30 °F - - ()
Degree Days  
Heating Degree Days 32    
Moisture  
Dew Point 22 °F    
Average Humidity 60    
Maximum Humidity 76    
Minimum Humidity 37    
Precipitation  
Precipitation 0.00 in - - ()
Sea Level Pressure  
Sea Level Pressure 30.47 in    
Wind  
Wind Speed 14 mph ()    
Max Wind Speed 21 mph    
Max Gust Speed 28 mph    
T = Trace of Precipitation, MM = Missing Value Source: Averaged Metar Reports

Daily Weather History Graph

Daily Weather History Graph

Search for Another Location

Airport or City:

Trip Planner

Search our weather history database for the weather conditions in past years. The results will help you decide how hot, cold, wet, or windy it might be!

Date:

Astronomy

Nov. 18, 2012 Rise Set
Actual Time 7:15 AM NST 4:26 PM NST
Civil Twilight 6:41 AM NST 5:00 PM NST
Nautical Twilight 6:04 AM NST 5:38 PM NST
Astronomical Twilight 5:27 AM NST 6:14 PM NST
Moon 11:34 AM NST (11/18) 9:45 PM NST (11/18)
Length of Visible Light 10h 19m
Length of Day
9h 11m
Waxing Crescent, 29% of the Moon is Illuminated
Nov 18
Waxing Crescent
Nov 20
First Quarter
Nov 28
Full
Dec 6
Last Quarter
Dec 13
New

Hourly Weather History & Observations

Time (NST) Temp. Windchill Dew Point Humidity Pressure Visibility Wind Dir Wind Speed Gust Speed Precip Events Conditions
12:30 AM 32.9 °F 22.8 °F 24.6 °F 72% 30.38 in - North 15.0 mph - N/A   Unknown
1:30 AM 32.0 °F 21.2 °F 23.2 °F 70% 30.39 in - North 16.1 mph - N/A   Unknown
2:30 AM 32 °F - 24 °F 63% 30.40 in - NNW 15.0 mph - -  
2:30 AM 32.0 °F 21.6 °F 24.3 °F 73% 30.40 in - NNW 15.0 mph 23.0 mph N/A   Unknown
3:30 AM 31.5 °F 19.1 °F 24.6 °F 76% 30.40 in - NNW 20.7 mph - N/A   Unknown
4:30 AM 31.5 °F 19.4 °F 23.9 °F 74% 30.41 in - NW 19.6 mph 27.6 mph N/A   Unknown
5:30 AM 34 °F - 25 °F 58% 30.41 in - NW 13.8 mph - -  
5:30 AM 33.6 °F 24.1 °F 24.6 °F 70% 30.41 in - NW 13.8 mph 20.7 mph N/A   Unknown
6:30 AM 34.2 °F 24.4 °F 24.8 °F 69% 30.43 in - WNW 15.0 mph - N/A   Unknown
7:30 AM 34.5 °F 24.8 °F 25.2 °F 69% 30.44 in - NW 15.0 mph - N/A   Unknown
8:30 AM 36 °F - 28 °F 63% 30.45 in - NW 13.8 mph - -  
8:30 AM 35.6 °F 26.6 °F 27.9 °F 73% 30.45 in - NW 13.8 mph - N/A   Unknown
9:30 AM 34.9 °F 24.2 °F 23.2 °F 62% 30.46 in - NNW 18.4 mph - N/A   Unknown
10:30 AM 35.1 °F 24.5 °F 24.1 °F 64% 30.48 in - NNW 18.4 mph 24.2 mph N/A   Unknown
11:30 AM 35 °F - 23 °F 50% 30.47 in - NNW 17.3 mph - -  
11:30 AM 35.1 °F 24.8 °F 23.2 °F 62% 30.47 in - NNW 17.3 mph - N/A   Unknown
12:30 PM 36.5 °F 27.4 °F 23.2 °F 59% 30.47 in - NNW 15.0 mph 20.7 mph N/A   Unknown
1:30 PM 35.6 °F 25.9 °F 21.7 °F 57% 30.47 in - NW 16.1 mph - N/A   Unknown
2:30 PM 36 °F - 20 °F 38% 30.48 in - NW 13.8 mph - -  
2:30 PM 36.1 °F 27.3 °F 19.6 °F 51% 30.48 in - NW 13.8 mph - N/A   Unknown
3:30 PM 36.1 °F 26.5 °F 20.8 °F 54% 30.49 in - NW 16.1 mph - N/A   Unknown
4:30 PM 35.6 °F 27.5 °F 20.1 °F 53% 30.49 in - NW 11.5 mph - N/A   Unknown
5:30 PM 35 °F - 18 °F 37% 30.50 in - WNW 13.8 mph - -  
5:30 PM 35.1 °F 25.9 °F 18.5 °F 51% 30.50 in - WNW 13.8 mph 19.6 mph N/A   Unknown
6:30 PM 35.4 °F 26.0 °F 19.4 °F 52% 30.51 in - NW 15.0 mph - N/A   Unknown
7:30 PM 35.1 °F 25.5 °F 19.9 °F 54% 30.53 in - WNW 15.0 mph - N/A   Unknown
8:30 PM 35 °F - 20 °F 41% 30.53 in - NW 16.1 mph - -  
8:30 PM 34.9 °F 24.9 °F 19.9 °F 55% 30.53 in - NW 16.1 mph - N/A   Unknown
9:30 PM 34.2 °F 25.7 °F 21.2 °F 59% 30.55 in - NW 11.5 mph - N/A   Unknown
10:30 PM 33.4 °F 23.9 °F 21.2 °F 61% 30.54 in - NW 13.8 mph 20.7 mph N/A   Unknown
11:30 PM 32 °F - 21 °F 53% 30.53 in - NW 11.5 mph - -  
11:30 PM 32.0 °F 23.0 °F 21.2 °F 64% 30.53 in - NW 11.5 mph - N/A   Unknown